When you browse on this site, cookies collect data to enhance your experience and personalize the content and advertising you see.
Visit our Privacy Policy to learn more. By continuing to use the site, you agree to this use of cookies and data.
  • în România
  • Lista ţărilor
  • Pe 7 zile
  • Temperatura apei
  • Meteo pe hartă
  • Widget-uri
  • user-avatar
    Intrare

    Meteo pe oră la Basse Santa Su

    Astăzi, 28 Ianuarie, Marţi

    Timp Temperatura Precipitaţii Vânt Presiune Umiditate
    00:00 +27°C° 0 mm 2 m/s 756 mmHg 9%
    01:00 +26°C° 0 mm 2 m/s 756 mmHg 10%
    02:00 +25°C° 0 mm 1 m/s 756 mmHg 11%
    03:00 +24°C° 0 mm 1 m/s 756 mmHg 12%
    04:00 +23°C° 0 mm 1 m/s 756 mmHg 13%
    05:00 +23°C° 0 mm 1 m/s 756 mmHg 14%
    06:00 +24°C° 0 mm 1 m/s 757 mmHg 16%
    07:00 +25°C° 0 mm 1 m/s 757 mmHg 19%
    08:00 +26°C° 0 mm 1 m/s 758 mmHg 21%
    09:00 +29°C° 0 mm 2 m/s 758 mmHg 19%
    10:00 +34°C° 0 mm 2 m/s 757 mmHg 17%
    11:00 +38°C° 0 mm 2 m/s 757 mmHg 14%
    12:00 +39°C° 0 mm 2 m/s 757 mmHg 12%
    13:00 +41°C° 0 mm 2 m/s 756 mmHg 11%
    14:00 +42°C° 0 mm 2 m/s 755 mmHg 9%
    15:00 +42°C° 0 mm 2 m/s 755 mmHg 9%
    16:00 +41°C° 0 mm 2 m/s 754 mmHg 9%
    17:00 +41°C° 0 mm 2 m/s 754 mmHg 9%
    18:00 +37°C° 0 mm 1 m/s 754 mmHg 10%
    19:00 +34°C° 0 mm 1 m/s 755 mmHg 11%
    20:00 +31°C° 0 mm 1 m/s 756 mmHg 11%
    21:00 +30°C° 0 mm 1 m/s 756 mmHg 13%
    22:00 +29°C° 0 mm 1 m/s 757 mmHg 14%
    23:00 +28°C° 0 mm 1 m/s 757 mmHg 15%

    Mâine, 29 Ianuarie, Miercuri

    Timp Temperatura Precipitaţii Vânt Presiune Umiditate
    00:00 +26°C° 0 mm 1 m/s 757 mmHg 21%
    01:00 +25°C° 0 mm 1 m/s 757 mmHg 28%
    02:00 +23°C° 0 mm 2 m/s 757 mmHg 34%
    03:00 +23°C° 0 mm 1 m/s 757 mmHg 36%
    04:00 +22°C° 0 mm 1 m/s 757 mmHg 39%
    05:00 +21°C° 0 mm 1 m/s 757 mmHg 41%
    06:00 +22°C° 0 mm 1 m/s 757 mmHg 39%
    07:00 +24°C° 0 mm 1 m/s 758 mmHg 36%
    08:00 +25°C° 0 mm 1 m/s 758 mmHg 33%
    09:00 +29°C° 0 mm 1 m/s 758 mmHg 26%
    10:00 +34°C° 0 mm 2 m/s 758 mmHg 19%
    11:00 +38°C° 0 mm 2 m/s 758 mmHg 12%
    12:00 +39°C° 0 mm 2 m/s 757 mmHg 11%
    13:00 +42°C° 0 mm 3 m/s 756 mmHg 9%
    14:00 +43°C° 0 mm 3 m/s 755 mmHg 7%
    15:00 +43°C° 0 mm 3 m/s 755 mmHg 7%
    16:00 +41°C° 0 mm 2 m/s 755 mmHg 7%
    17:00 +41°C° 0 mm 1 m/s 755 mmHg 8%
    18:00 +37°C° 0 mm 1 m/s 755 mmHg 9%
    19:00 +34°C° 0 mm 1 m/s 756 mmHg 9%
    20:00 +31°C° 0 mm 1 m/s 757 mmHg 10%
    21:00 +30°C° 0 mm 1 m/s 757 mmHg 9%
    22:00 +29°C° 0 mm 1 m/s 757 mmHg 8%
    23:00 +28°C° 0 mm 1 m/s 758 mmHg 7%

    Poimâine, 30 Ianuarie, Joi

    Timp Temperatura Precipitaţii Vânt Presiune Umiditate
    00:00 +26°C° 0 mm 1 m/s 758 mmHg 10%
    01:00 +25°C° 0 mm 1 m/s 757 mmHg 13%
    02:00 +23°C° 0 mm 1 m/s 757 mmHg 16%
    03:00 +23°C° 0 mm 1 m/s 757 mmHg 14%
    04:00 +22°C° 0 mm 1 m/s 757 mmHg 13%
    05:00 +22°C° 0 mm 1 m/s 758 mmHg 12%
    06:00 +24°C° 0 mm 2 m/s 758 mmHg 11%
    07:00 +25°C° 0 mm 2 m/s 758 mmHg 9%
    08:00 +27°C° 0 mm 3 m/s 759 mmHg 8%
    09:00 +30°C° 0 mm 4 m/s 759 mmHg 7%
    10:00 +35°C° 0 mm 4 m/s 758 mmHg 5%
    11:00 +40°C° 0 mm 5 m/s 758 mmHg 4%
    12:00 +41°C° 0 mm 5 m/s 757 mmHg 4%
    13:00 +43°C° 0 mm 4 m/s 756 mmHg 4%
    14:00 +44°C° 0 mm 4 m/s 755 mmHg 3%
    15:00 +44°C° 0 mm 3 m/s 755 mmHg 3%
    16:00 +43°C° 0 mm 3 m/s 755 mmHg 4%
    17:00 +42°C° 0 mm 2 m/s 755 mmHg 4%
    18:00 +39°C° 0 mm 2 m/s 755 mmHg 5%
    19:00 +35°C° 0 mm 2 m/s 756 mmHg 6%
    20:00 +31°C° 0 mm 2 m/s 757 mmHg 7%
    21:00 +31°C° 0 mm 2 m/s 757 mmHg 8%
    22:00 +30°C° 0 mm 3 m/s 757 mmHg 9%
    23:00 +29°C° 0 mm 3 m/s 758 mmHg 10%

    31 Ianuarie, Vineri

    Timp Temperatura Precipitaţii Vânt Presiune Umiditate
    00:00 +28°C° 0 mm 3 m/s 757 mmHg 11%
    01:00 +28°C° 0 mm 3 m/s 757 mmHg 11%
    02:00 +27°C° 0 mm 3 m/s 757 mmHg 12%
    03:00 +26°C° 0 mm 2 m/s 757 mmHg 13%
    04:00 +25°C° 0 mm 2 m/s 757 mmHg 14%
    05:00 +24°C° 0 mm 2 m/s 757 mmHg 15%
    06:00 +26°C° 0 mm 3 m/s 757 mmHg 14%
    07:00 +27°C° 0 mm 4 m/s 758 mmHg 13%
    08:00 +29°C° 0 mm 5 m/s 758 mmHg 12%
    09:00 +33°C° 0 mm 5 m/s 758 mmHg 10%
    10:00 +36°C° 0 mm 5 m/s 758 mmHg 8%
    11:00 +40°C° 0 mm 5 m/s 757 mmHg 7%
    12:00 +42°C° 0 mm 5 m/s 756 mmHg 6%
    13:00 +43°C° 0 mm 5 m/s 756 mmHg 6%
    14:00 +44°C° 0 mm 4 m/s 755 mmHg 5%
    15:00 +44°C° 0 mm 4 m/s 754 mmHg 5%
    16:00 +43°C° 0 mm 3 m/s 754 mmHg 5%
    17:00 +43°C° 0 mm 3 m/s 754 mmHg 5%
    18:00 +39°C° 0 mm 3 m/s 754 mmHg 7%
    19:00 +36°C° 0 mm 3 m/s 755 mmHg 8%
    20:00 +33°C° 0 mm 3 m/s 756 mmHg 10%
    21:00 +31°C° 0 mm 3 m/s 756 mmHg 10%
    22:00 +30°C° 0 mm 3 m/s 756 mmHg 10%
    23:00 +30°C° 0 mm 3 m/s 757 mmHg 10%

    1 Februarie, Sâmbătă

    Timp Temperatura Precipitaţii Vânt Presiune Umiditate
    00:00 +28°C° 0 mm 2 m/s 756 mmHg 12%
    01:00 +27°C° 0 mm 2 m/s 756 mmHg 13%
    02:00 +25°C° 0 mm 1 m/s 756 mmHg 14%
    03:00 +24°C° 0 mm 1 m/s 756 mmHg 14%
    04:00 +24°C° 0 mm 1 m/s 756 mmHg 15%
    05:00 +23°C° 0 mm 1 m/s 757 mmHg 15%
    06:00 +25°C° 0 mm 2 m/s 757 mmHg 14%
    07:00 +26°C° 0 mm 2 m/s 758 mmHg 13%
    08:00 +28°C° 0 mm 2 m/s 758 mmHg 12%
    09:00 +31°C° 0 mm 3 m/s 758 mmHg 10%
    10:00 +35°C° 0 mm 3 m/s 757 mmHg 9%
    11:00 +38°C° 0 mm 3 m/s 757 mmHg 7%
    12:00 +40°C° 0 mm 3 m/s 756 mmHg 7%
    13:00 +42°C° 0 mm 3 m/s 755 mmHg 7%
    14:00 +44°C° 0 mm 3 m/s 754 mmHg 7%
    15:00 +43°C° 0 mm 2 m/s 754 mmHg 8%
    16:00 +42°C° 0 mm 2 m/s 754 mmHg 8%
    17:00 +42°C° 0 mm 1 m/s 754 mmHg 8%
    18:00 +39°C° 0 mm 1 m/s 754 mmHg 10%
    19:00 +35°C° 0 mm 1 m/s 755 mmHg 12%
    20:00 +32°C° 0 mm 1 m/s 756 mmHg 14%
    21:00 +30°C° 0 mm 1 m/s 756 mmHg 24%
    22:00 +28°C° 0 mm 2 m/s 757 mmHg 34%
    23:00 +27°C° 0 mm 2 m/s 757 mmHg 45%

    2 Februarie, Duminică

    Timp Temperatura Precipitaţii Vânt Presiune Umiditate
    00:00 +26°C° 0 mm 2 m/s 757 mmHg 53%
    01:00 +24°C° 0 mm 2 m/s 757 mmHg 61%
    02:00 +23°C° 0 mm 2 m/s 757 mmHg 69%
    03:00 +21°C° 0 mm 2 m/s 757 mmHg 75%
    04:00 +20°C° 0 mm 2 m/s 757 mmHg 80%
    05:00 +21°C° 0 mm 1 m/s 757 mmHg 86%
    06:00 +22°C° 0 mm 1 m/s 757 mmHg 80%
    07:00 +23°C° 0 mm 1 m/s 758 mmHg 74%
    08:00 +25°C° 0 mm 1 m/s 758 mmHg 68%
    09:00 +29°C° 0 mm 1 m/s 758 mmHg 52%
    10:00 +33°C° 0 mm 1 m/s 758 mmHg 36%
    11:00 +39°C° 0 mm 1 m/s 757 mmHg 19%
    12:00 +40°C° 0 mm 1 m/s 757 mmHg 17%
    13:00 +41°C° 0 mm 1 m/s 756 mmHg 14%
    14:00 +43°C° 0 mm 1 m/s 755 mmHg 11%
    15:00 +42°C° 0 mm 1 m/s 755 mmHg 11%
    16:00 +42°C° 0 mm 1 m/s 755 mmHg 11%
    17:00 +41°C° 0 mm 1 m/s 755 mmHg 12%
    18:00 +37°C° 0 mm 1 m/s 755 mmHg 14%
    19:00 +32°C° 0 mm 0 m/s 756 mmHg 17%
    20:00 +29°C° 0 mm 0 m/s 756 mmHg 20%
    21:00 +30°C° 0 mm 1 m/s 757 mmHg 27%
    22:00 +29°C° 0 mm 2 m/s 757 mmHg 34%
    23:00 +27°C° 0 mm 3 m/s 757 mmHg 41%
    Arată mai mult